TimeCDT,TemperatureF,Dew PointF,Humidity,Sea Level PressureIn,VisibilityMPH,Wind Direction,Wind SpeedMPH,Gust SpeedMPH,PrecipitationIn,Events,Conditions,WindDirDegrees,DateUTC
12:15 AM,42.8,30.2,61,30.17,10.0,WNW,11.5,-,N/A,,Clear,290,2012-10-05 05:15:00
12:35 AM,42.8,30.2,61,30.17,10.0,West,11.5,18.4,N/A,,Clear,280,2012-10-05 05:35:00
12:55 AM,42.8,30.2,61,30.16,10.0,WNW,12.7,-,N/A,,Clear,290,2012-10-05 05:55:00
1:15 AM,42.8,30.2,61,30.18,10.0,West,8.1,-,N/A,,Clear,270,2012-10-05 06:15:00
1:35 AM,42.8,28.4,57,30.18,10.0,WSW,5.8,-,N/A,,Clear,250,2012-10-05 06:35:00
1:55 AM,41.0,30.2,65,30.18,10.0,WSW,6.9,-,N/A,,Clear,250,2012-10-05 06:55:00
2:15 AM,41.0,30.2,65,30.18,10.0,West,6.9,-,N/A,,Clear,260,2012-10-05 07:15:00
2:35 AM,39.2,30.2,70,30.18,10.0,West,8.1,-,N/A,,Clear,260,2012-10-05 07:35:00
2:55 AM,39.2,30.2,70,30.18,10.0,West,8.1,-,N/A,,Clear,260,2012-10-05 07:55:00
3:15 AM,39.2,30.2,70,30.18,10.0,West,9.2,-,N/A,,Clear,260,2012-10-05 08:15:00
3:35 AM,39.2,30.2,70,30.18,10.0,West,6.9,-,N/A,,Clear,270,2012-10-05 08:35:00
3:55 AM,37.4,30.2,75,30.17,10.0,NW,5.8,-,N/A,,Clear,310,2012-10-05 08:55:00
4:15 AM,37.4,30.2,75,30.17,10.0,WNW,8.1,-,N/A,,Clear,290,2012-10-05 09:15:00
4:35 AM,39.2,30.2,70,30.17,10.0,West,5.8,-,N/A,,Clear,280,2012-10-05 09:35:00
4:55 AM,39.2,30.2,70,30.17,10.0,West,4.6,-,N/A,,Clear,270,2012-10-05 09:55:00
5:15 AM,39.2,30.2,70,30.17,10.0,West,6.9,-,N/A,,Clear,280,2012-10-05 10:15:00
5:35 AM,37.4,30.2,75,30.17,10.0,WNW,5.8,-,N/A,,Clear,290,2012-10-05 10:35:00
5:55 AM,37.4,30.2,75,30.17,10.0,WSW,3.5,-,N/A,,Clear,240,2012-10-05 10:55:00
6:15 AM,37.4,30.2,75,30.17,10.0,WSW,3.5,-,N/A,,Clear,250,2012-10-05 11:15:00
6:35 AM,35.6,30.2,81,30.18,10.0,WSW,3.5,-,N/A,,Clear,240,2012-10-05 11:35:00
6:55 AM,35.6,28.4,75,30.18,10.0,WSW,3.5,-,N/A,,Clear,240,2012-10-05 11:55:00
7:15 AM,35.6,28.4,75,30.18,10.0,SW,3.5,-,N/A,,Clear,230,2012-10-05 12:15:00
7:35 AM,35.6,30.2,81,30.18,10.0,Calm,Calm,-,N/A,,Clear,0,2012-10-05 12:35:00
7:55 AM,37.4,30.2,75,30.18,10.0,Calm,Calm,-,N/A,,Clear,0,2012-10-05 12:55:00
8:15 AM,39.2,30.2,70,30.18,10.0,West,5.8,-,N/A,,Clear,260,2012-10-05 13:15:00
8:35 AM,39.2,30.2,70,30.18,10.0,WSW,8.1,-,N/A,,Clear,250,2012-10-05 13:35:00
8:55 AM,41.0,30.2,65,30.18,10.0,WSW,11.5,16.1,N/A,,Clear,250,2012-10-05 13:55:00
9:15 AM,41.0,30.2,65,30.19,10.0,West,9.2,16.1,N/A,,Clear,280,2012-10-05 14:15:00
9:35 AM,42.8,28.4,57,30.18,10.0,West,10.4,-,N/A,,Clear,280,2012-10-05 14:35:00
9:55 AM,42.8,28.4,57,30.18,10.0,WNW,11.5,-,N/A,,Clear,290,2012-10-05 14:55:00
10:15 AM,42.8,26.6,53,30.17,10.0,West,10.4,-,N/A,,Clear,270,2012-10-05 15:15:00
10:35 AM,42.8,26.6,53,30.17,10.0,West,13.8,19.6,N/A,,Clear,270,2012-10-05 15:35:00
10:55 AM,42.8,24.8,49,30.18,10.0,West,12.7,21.9,N/A,,Clear,260,2012-10-05 15:55:00
11:15 AM,42.8,24.8,49,30.17,10.0,West,10.4,21.9,N/A,,Clear,260,2012-10-05 16:15:00
11:35 AM,42.8,24.8,49,30.16,10.0,West,13.8,19.6,N/A,,Clear,280,2012-10-05 16:35:00
11:55 AM,44.6,24.8,46,30.15,10.0,West,12.7,-,N/A,,Clear,270,2012-10-05 16:55:00
12:15 PM,44.6,24.8,46,30.16,10.0,WSW,12.7,17.3,N/A,,Clear,240,2012-10-05 17:15:00
12:35 PM,44.6,23.0,43,30.15,10.0,West,12.7,-,N/A,,Clear,260,2012-10-05 17:35:00
12:55 PM,44.6,23.0,43,30.14,10.0,WSW,11.5,18.4,N/A,,Clear,250,2012-10-05 17:55:00
1:35 PM,46.4,23.0,40,30.13,10.0,West,12.7,-,N/A,,Clear,260,2012-10-05 18:35:00
1:55 PM,46.4,23.0,40,30.12,10.0,West,13.8,20.7,N/A,,Clear,260,2012-10-05 18:55:00
2:15 PM,46.4,23.0,40,30.12,10.0,WSW,13.8,18.4,N/A,,Clear,250,2012-10-05 19:15:00
2:35 PM,46.4,23.0,40,30.12,10.0,WSW,16.1,19.6,N/A,,Clear,250,2012-10-05 19:35:00
2:55 PM,48.2,19.4,32,30.12,10.0,West,15.0,20.7,N/A,,Clear,270,2012-10-05 19:55:00
3:15 PM,48.2,21.2,34,30.11,10.0,WSW,11.5,-,N/A,,Clear,250,2012-10-05 20:15:00
3:35 PM,48.2,19.4,32,30.10,10.0,WSW,12.7,20.7,N/A,,Clear,250,2012-10-05 20:35:00
3:55 PM,48.2,19.4,32,30.10,10.0,WSW,11.5,20.7,N/A,,Clear,240,2012-10-05 20:55:00
4:15 PM,48.2,17.6,30,30.09,10.0,West,17.3,26.5,N/A,,Clear,260,2012-10-05 21:15:00
4:35 PM,48.2,17.6,30,30.09,10.0,West,12.7,19.6,N/A,,Clear,270,2012-10-05 21:35:00
4:55 PM,48.2,17.6,30,30.09,10.0,West,8.1,-,N/A,,Clear,260,2012-10-05 21:55:00
5:15 PM,50.0,15.8,26,30.08,10.0,West,16.1,20.7,N/A,,Clear,280,2012-10-05 22:15:00
5:35 PM,48.2,15.8,27,30.09,10.0,West,15.0,25.3,N/A,,Clear,270,2012-10-05 22:35:00
5:55 PM,48.2,17.6,30,30.10,10.0,West,15.0,24.2,N/A,,Clear,270,2012-10-05 22:55:00
6:15 PM,46.4,17.6,32,30.10,10.0,West,16.1,20.7,N/A,,Clear,280,2012-10-05 23:15:00
6:35 PM,46.4,19.4,34,30.10,10.0,West,11.5,16.1,N/A,,Clear,260,2012-10-05 23:35:00
6:55 PM,44.6,19.4,37,30.10,10.0,West,8.1,-,N/A,,Clear,260,2012-10-05 23:55:00
7:15 PM,44.6,21.2,39,30.10,10.0,West,9.2,-,N/A,,Clear,260,2012-10-06 00:15:00
7:35 PM,44.6,21.2,39,30.10,10.0,WSW,6.9,-,N/A,,Clear,250,2012-10-06 00:35:00
7:55 PM,42.8,21.2,42,30.10,10.0,West,8.1,-,N/A,,Clear,260,2012-10-06 00:55:00
8:15 PM,42.8,23.0,46,30.11,10.0,West,6.9,-,N/A,,Clear,260,2012-10-06 01:15:00
8:35 PM,42.8,23.0,46,30.11,10.0,West,9.2,-,N/A,,Clear,280,2012-10-06 01:35:00
8:55 PM,41.0,23.0,49,30.12,10.0,West,6.9,-,N/A,,Clear,260,2012-10-06 01:55:00
9:15 PM,41.0,24.8,53,30.12,10.0,West,8.1,-,N/A,,Clear,270,2012-10-06 02:15:00
9:35 PM,41.0,24.8,53,30.12,10.0,West,11.5,16.1,N/A,,Clear,280,2012-10-06 02:35:00
9:55 PM,41.0,24.8,53,30.12,10.0,West,9.2,-,N/A,,Clear,280,2012-10-06 02:55:00
10:15 PM,41.0,24.8,53,30.12,10.0,West,11.5,18.4,N/A,,Clear,280,2012-10-06 03:15:00
10:35 PM,41.0,24.8,53,30.12,10.0,West,8.1,-,N/A,,Clear,280,2012-10-06 03:35:00
10:55 PM,39.2,24.8,56,30.13,10.0,West,9.2,-,N/A,,Scattered Clouds,280,2012-10-06 03:55:00
11:55 PM,41.0,24.8,53,30.13,10.0,WNW,10.4,-,N/A,,Overcast,290,2012-10-06 04:55:00